Regional Weather Roundup
Issued by NWS

Home | Current Version | Previous Version | Graphics & Text | Print | Product List | Glossary On
Versions: 1 2 3 4 5 6 7 8 9 10 11 12 13 14 15 16 17 18 19 20 21 22 23 24 25 26 27 28 29 30 31 32 33 34 35 36 37 38 39 40 41 42 43 44 45 46 47 48 49 50
000
ASUS43 KIND 030159
RWRIN

WEATHER ROUNDUP FOR INDIANA
NATIONAL WEATHER SERVICE INDIANAPOLIS IN
1000 PM EDT SUN AUG 02 2015

NOTE: "FAIR" INDICATES FEW OR NO CLOUDS BELOW 12,000 FEET WITH NO
SIGNIFICANT WEATHER AND/OR OBSTRUCTIONS TO VISIBILITY.

* - STATION DOES NOT REPORT WEATHER SUCH AS PRECIPITATION OR FOG.

+ - STATION NOT QUALITY CONTROLLED BY THE NATIONAL WEATHER SERVICE.
    USE DATA WITH CAUTION...ESPECIALLY DEWPOINT AND RELATIVE
    HUMIDITY OBSERVATIONS.

INZ001>003-010>013-019-020-030300-
NORTHWEST INDIANA

CITY           SKY/WX    TMP DP  RH WIND       PRES   REMARKS
KNOX *+        PTCLDY    81  64  57 SW14      29.72R
LA PORTE +     MOCLDY    82  69  66 SW10G16   29.72S
MONTICELLO +   CLEAR     81  69  67 S10       29.76S

$$

LMZ046-743>745-030300-
SOUTHERN LAKE MICHIGAN

STATION/POSITION TIME  TEMP    WIND        PRES    WAVE
                       AIR SEA DIR/SP/G            HT
                 (UTC) (F)     (DEG/KT/KT) (MB)    (FT)
BURNS HARBOR     0140   84     220/ 19     1005.4S
MICHIGAN CITY    0100   84     190/ 23/ 26   N/A
5NW MICH CITY    0100   81 74  230/ 16/ 21   N/A     5

$$

INZ004-005-014>016-021>024-030300-
NORTH CENTRAL INDIANA

CITY           SKY/WX    TMP DP  RH WIND       PRES   REMARKS
GOSHEN         PTCLDY    80  67  64 S14       29.72S
LOGANSPORT +   CLEAR     77  64  65 S10       29.78S
SOUTH BEND     MOCLDY    83  68  60 SW14      29.70S
WARSAW +       CLEAR     81  68  65 S6        29.74S

$$

INZ006>009-017-018-025>027-030300-
NORTHEAST INDIANA

CITY           SKY/WX    TMP DP  RH WIND       PRES   REMARKS
ANGOLA *+      CLEAR     81  75  83 SW15      29.72S
FORT WAYNE     PTCLDY    79  65  62 S14       29.78F

$$

INZ028-029-035-036-043>045-051>053-030300-
WEST CENTRAL INDIANA

CITY           SKY/WX    TMP DP  RH WIND       PRES   REMARKS
CRAWFORDSVL +  CLEAR     76  66  72 S8          N/A
GREENCASTLE +  CLEAR     77  64  65 S7        29.85R
LAFAYETTE      CLEAR     79  69  71 S7        29.78S
TERRE HAUTE    CLEAR     80  70  71 S9        29.83S

$$

INZ030>032-037>040-046>048-054>057-064-065-030300-
CENTRAL INDIANA

CITY           SKY/WX    TMP DP  RH WIND       PRES   REMARKS
FRANKFORT +    CLEAR     77  71  80 S7        29.83R
GREENWOOD *+   CLEAR     77  63  61 S7        29.87R
INDIANAPOLIS   PTCLDY    78  65  63 S13       29.84R
-EAGLE CREEK   CLEAR     80  66  62 S8        29.83S
KOKOMO *+      CLEAR     79  66  65 S13       29.80S
MT COMFORT *+  CLEAR     75  63  64 S7        29.86R
SHELBYVILLE    CLEAR     77  64  64 S8        29.85S
ZIONSVILLE +   CLEAR     79  66  63 S9        29.84S

$$

INZ033-034-041-042-049-050-058-059-030300-
EAST CENTRAL INDIANA

CITY           SKY/WX    TMP DP  RH WIND       PRES   REMARKS
MUNCIE         CLEAR     77  64  64 S8        29.83F

$$

INZ060-061-067>069-081>083-085>088-030300-
SOUTHWEST INDIANA

CITY           SKY/WX    TMP DP  RH WIND       PRES   REMARKS
EVANSVILLE     CLEAR     81  67  62 S6        29.87S
HUNTINGBURG *+ CLEAR     75  63  64 S3        29.89R

$$

INZ062-063-066-070>080-084-089>092-030300-
SOUTH CENTRAL AND SOUTHEAST INDIANA

CITY           SKY/WX    TMP DP  RH WIND       PRES   REMARKS
BLOOMINGTON    CLEAR     77  66  68 S7        29.87S
MADISON *+     CLEAR     72  64  78 CALM      29.91S
SEYMOUR +      CLEAR     73  64  73 S5        29.88R

$$



USA.gov is the U.S. government's official web portal to all federal, state and local government web resources and services.